QPF
0.00 0.00 0.00 0.00 0.01 0.01 0.00 0.00 0.00 0.00 0.00 0.00 0.00 0.00 0.00 0.00 0.00 0.00 0.00 0.00 0.00 0.00 0.00 0.00 0.00 0.00 0.00 0.00 0.00 0.00 0.00 0.00 0.00 0.00 0.00 0.00 0.01 0.01 0.03 0.03 0.01 0.00 0.00
0.00 0.00 0.00 0.00 0.01 0.01 0.00 0.00 0.00 0.00 0.00 0.00 0.00 0.00 0.00 0.00 0.00 0.00 0.00 0.00 0.00 0.00 0.00 0.00 0.00 0.00 0.00 0.00 0.00 0.00 0.00 0.00 0.00 0.00 0.00 0.00 0.00 0.01 0.05 0.04 0.01 0.01 0.01
0.00 0.00 0.00 0.00 0.01 0.01 0.00 0.00 0.00 0.00 0.00 0.00 0.00 0.00 0.00 0.00 0.00 0.00 0.00 0.00 0.00 0.00 0.00 0.00 0.00 0.00 0.00 0.00 0.00 0.00 0.00 0.00 0.00 0.00 0.01 0.00 0.00 0.01 0.02 0.03 0.02 0.02 0.01
0.00 0.00 0.00 0.00 0.00 0.00 0.00 0.00 0.00 0.00 0.00 0.00 0.00 0.00 0.00 0.00 0.00 0.00 0.00 0.00 0.00 0.00 0.00 0.00 0.00 0.00 0.00 0.00 0.00 0.00 0.00 0.00 0.00 0.01 0.01 0.01 0.00 0.01 0.02 0.02 0.02 0.01 0.01
0.00 0.00 0.00 0.00 0.00 0.00 0.00 0.00 0.00 0.00 0.00 0.00 0.00 0.00 0.00 0.00 0.00 0.00 0.00 0.00 0.00 0.00 0.00 0.00 0.00 0.00 0.00 0.00 0.00 0.00 0.00 0.00 0.00 0.01 0.01 0.01 0.02 0.02 0.04 0.04 0.03 0.02 0.01
0.00 0.00 0.00 0.00 0.00 0.00 0.00 0.00 0.00 0.00 0.00 0.00 0.00 0.00 0.00 0.00 0.00 0.00 0.00 0.00 0.00 0.00 0.00 0.00 0.00 0.00 0.00 0.00 0.00 0.00 0.00 0.00 0.00 0.00 0.01 0.02 0.02 0.02 0.03 0.04 0.04 0.04 0.03
0.00 0.00 0.00 0.00 0.00 0.00 0.00 0.00 0.00 0.00 0.00 0.00 0.00 0.00 0.00 0.00 0.00 0.00 0.00 0.00 0.00 0.00 0.00 0.00 0.00 0.00 0.00 0.00 0.00 0.00 0.00 0.00 0.00 0.00 0.00 0.01 0.01 0.01 0.02 0.03 0.03 0.04 0.04
0.00 0.00 0.00 0.00 0.00 0.00 0.00 0.00 0.00 0.00 0.00 0.00 0.00 0.00 0.00 0.00 0.00 0.00 0.00 0.00 0.00 0.00 0.00 0.00 0.00 0.00 0.00 0.00 0.00 0.00 0.00 0.00 0.00 0.00 0.00 0.00 0.00 0.00 0.01 0.01 0.01 0.02 0.02
0.00 0.00 0.00 0.00 0.00 0.00 0.00 0.00 0.00 0.00 0.00 0.00 0.00 0.00 0.00 0.00 0.00 0.00 0.00 0.00 0.00 0.00 0.00 0.00 0.00 0.00 0.00 0.00 0.00 0.00 0.00 0.00 0.00 0.00 0.00 0.00 0.00 0.00 0.00 0.00 0.00 0.00 0.01
0.00 0.00 0.00 0.00 0.00 0.00 0.00 0.00 0.00 0.00 0.00 0.00 0.00 0.00 0.00 0.00 0.00 0.00 0.00 0.00 0.00 0.00 0.00 0.00 0.00 0.00 0.00 0.00 0.00 0.00 0.00 0.00 0.00 0.00 0.00 0.00 0.00 0.00 0.00 0.00 0.00 0.00 0.00
0.00 0.00 0.00 0.00 0.00 0.00 0.00 0.00 0.00 0.00 0.00 0.00 0.00 0.00 0.00 0.00 0.00 0.00 0.00 0.00 0.00 0.00 0.00 0.00 0.00 0.00 0.00 0.00 0.00 0.00 0.00 0.00 0.00 0.00 0.00 0.00 0.00 0.00 0.00 0.00 0.00 0.00 0.00
0.00 0.00 0.00 0.00 0.00 0.00 0.00 0.00 0.00 0.00 0.00 0.00 0.00 0.00 0.00 0.00 0.00 0.00 0.00 0.00 0.00 0.00 0.00 0.00 0.00 0.00 0.00 0.00 0.00 0.00 0.00 0.00 0.00 0.00 0.00 0.00 0.00 0.00 0.00 0.00 0.00 0.00 0.00
0.00 0.00 0.00 0.00 0.00 0.00 0.00 0.00 0.00 0.00 0.00 0.00 0.00 0.00 0.00 0.00 0.00 0.00 0.00 0.00 0.00 0.00 0.00 0.00 0.00 0.00 0.00 0.00 0.00 0.00 0.00 0.00 0.00 0.00 0.00 0.00 0.00 0.00 0.01 0.01 0.00 0.00 0.00
0.00 0.00 0.00 0.00 0.00 0.00 0.00 0.00 0.00 0.00 0.00 0.00 0.00 0.00 0.00 0.00 0.00 0.00 0.00 0.00 0.00 0.00 0.00 0.00 0.00 0.00 0.00 0.00 0.00 0.00 0.00 0.00 0.00 0.00 0.00 0.00 0.00 0.01 0.01 0.01 0.01 0.01 0.01
0.00 0.00 0.00 0.00 0.00 0.00 0.00 0.00 0.00 0.00 0.00 0.00 0.00 0.00 0.00 0.00 0.00 0.00 0.00 0.00 0.00 0.00 0.00 0.00 0.00 0.00 0.00 0.00 0.00 0.00 0.00 0.00 0.00 0.00 0.00 0.01 0.01 0.01 0.02 0.02 0.02 0.02 0.02
0.01 0.01 0.01 0.00 0.00 0.00 0.00 0.00 0.00 0.00 0.00 0.00 0.00 0.00 0.00 0.00 0.00 0.00 0.00 0.00 0.00 0.00 0.00 0.00 0.00 0.00 0.00 0.00 0.00 0.00 0.00 0.00 0.00 0.00 0.00 0.00 0.01 0.01 0.02 0.02 0.03 0.03 0.04
0.01 0.01 0.00 0.01 0.01 0.01 0.00 0.00 0.00 0.00 0.00 0.00 0.00 0.00 0.00 0.00 0.00 0.00 0.01 0.01 0.01 0.01 0.01 0.01 0.02 0.01 0.01 0.01 0.01 0.00 0.00 0.00 0.00 0.00 0.00 0.00 0.00 0.01 0.01 0.02 0.02 0.03 0.04
0.01 0.01 0.00 0.00 0.00 0.00 0.00 0.00 0.00 0.00 0.00 0.00 0.00 0.00 0.00 0.00 0.01 0.02 0.04 0.06 0.06 0.06 0.06 0.05 0.04 0.02 0.02 0.01 0.01 0.00 0.00 0.00 0.00 0.00 0.00 0.00 0.00 0.00 0.00 0.01 0.01 0.02 0.03
0.00 0.00 0.00 0.00 0.00 0.00 0.01 0.01 0.01 0.01 0.01 0.00 0.01 0.01 0.02 0.05 0.08 0.11 0.16 0.16 0.14 0.11 0.09 0.08 0.06 0.04 0.03 0.02 0.01 0.00 0.00 0.00 0.00 0.00 0.00 0.00 0.00 0.00 0.00 0.00 0.01 0.02 0.03
0.00 0.00 0.00 0.00 0.01 0.02 0.03 0.03 0.03 0.03 0.05 0.07 0.10 0.12 0.14 0.19 0.23 0.26 0.26 0.23 0.18 0.14 0.11 0.09 0.06 0.05 0.03 0.02 0.01 0.01 0.00 0.00 0.00 0.00 0.00 0.00 0.00 0.00 0.00 0.00 0.00 0.00 0.01
0.00 0.00 0.00 0.01 0.02 0.05 0.08 0.10 0.15 0.17 0.26 0.38 0.41 0.39 0.39 0.41 0.40 0.38 0.32 0.25 0.18 0.14 0.12 0.08 0.06 0.04 0.02 0.01 0.01 0.01 0.01 0.00 0.00 0.00 0.00 0.00 0.00 0.00 0.00 0.00 0.00 0.00 0.00
0.00 0.00 0.01 0.03 0.07 0.13 0.21 0.31 0.43 0.55 0.67 0.72 0.76 0.78 0.74 0.62 0.53 0.45 0.35 0.26 0.18 0.13 0.09 0.07 0.04 0.03 0.02 0.01 0.00 0.00 0.00 0.00 0.00 0.00 0.00 0.00 0.00 0.00 0.00 0.00 0.00 0.00 0.00
0.00 0.01 0.04 0.07 0.13 0.25 0.39 0.53 0.68 0.85 0.95 0.93 0.87 0.82 0.79 0.71 0.60 0.47 0.35 0.25 0.17 0.12 0.08 0.05 0.03 0.02 0.01 0.01 0.00 0.00 0.00 0.00 0.00 0.00 0.00 0.00 0.00 0.00 0.00 0.00 0.00 0.00 0.00
0.01 0.03 0.06 0.11 0.22 0.40 0.62 0.86 1.00 1.11 1.11 0.97 0.83 0.74 0.68 0.62 0.55 0.43 0.32 0.22 0.14 0.08 0.04 0.02 0.01 0.01 0.00 0.00 0.00 0.00 0.00 0.00 0.00 0.00 0.00 0.00 0.00 0.00 0.00 0.00 0.00 0.00 0.00
0.03 0.05 0.10 0.19 0.36 0.56 0.76 0.92 1.05 1.10 0.97 0.77 0.61 0.52 0.47 0.43 0.38 0.30 0.21 0.13 0.08 0.05 0.02 0.01 0.01 0.00 0.00 0.00 0.00 0.00 0.00 0.00 0.00 0.00 0.00 0.00 0.00 0.00 0.00 0.00 0.00 0.00 0.00
0.05 0.09 0.16 0.29 0.49 0.69 0.81 0.95 0.99 0.92 0.74 0.52 0.37 0.30 0.27 0.25 0.22 0.17 0.13 0.09 0.06 0.03 0.02 0.01 0.01 0.00 0.00 0.00 0.00 0.00 0.00 0.00 0.00 0.00 0.00 0.00 0.00 0.00 0.00 0.00 0.00 0.00 0.00
MSLP
1012.95 1012.66 1012.58 1012.71 1012.97 1013.29 1013.59 1013.81 1013.92 1013.95 1013.94 1013.96 1014.06 1014.26 1014.56 1014.93 1015.31 1015.66 1015.93 1016.12 1016.23 1016.31 1016.38 1016.48 1016.63 1016.81 1017.02 1017.21 1017.38 1017.48 1017.55 1017.57 1017.58 1017.60 1017.64 1017.71 1017.81 1017.93 1018.06 1018.17 1018.27 1018.37 1018.47
1012.58 1012.38 1012.38 1012.57 1012.90 1013.29 1013.64 1013.90 1014.05 1014.11 1014.13 1014.19 1014.32 1014.55 1014.87 1015.24 1015.62 1015.95 1016.20 1016.37 1016.47 1016.54 1016.62 1016.73 1016.88 1017.06 1017.25 1017.42 1017.54 1017.60 1017.62 1017.61 1017.60 1017.61 1017.67 1017.77 1017.89 1018.03 1018.17 1018.29 1018.39 1018.49 1018.59
1012.16 1012.05 1012.13 1012.41 1012.82 1013.26 1013.67 1013.98 1014.17 1014.28 1014.35 1014.44 1014.60 1014.85 1015.17 1015.52 1015.87 1016.16 1016.37 1016.50 1016.58 1016.64 1016.72 1016.84 1017.00 1017.19 1017.37 1017.51 1017.60 1017.63 1017.61 1017.58 1017.57 1017.59 1017.67 1017.80 1017.96 1018.12 1018.27 1018.41 1018.51 1018.61 1018.71
1011.78 1011.76 1011.93 1012.29 1012.76 1013.26 1013.71 1014.06 1014.30 1014.45 1014.55 1014.68 1014.86 1015.11 1015.41 1015.73 1016.03 1016.26 1016.41 1016.50 1016.56 1016.62 1016.71 1016.85 1017.04 1017.24 1017.42 1017.55 1017.62 1017.62 1017.59 1017.55 1017.54 1017.58 1017.69 1017.85 1018.04 1018.23 1018.40 1018.53 1018.64 1018.74 1018.84
1011.54 1011.59 1011.83 1012.25 1012.76 1013.30 1013.77 1014.14 1014.41 1014.58 1014.72 1014.87 1015.06 1015.31 1015.59 1015.87 1016.10 1016.27 1016.38 1016.42 1016.46 1016.53 1016.64 1016.82 1017.03 1017.26 1017.46 1017.59 1017.65 1017.64 1017.59 1017.55 1017.55 1017.62 1017.75 1017.94 1018.15 1018.36 1018.53 1018.67 1018.77 1018.86 1018.96
1011.47 1011.58 1011.88 1012.32 1012.85 1013.38 1013.84 1014.21 1014.47 1014.66 1014.81 1014.98 1015.19 1015.44 1015.70 1015.94 1016.13 1016.25 1016.30 1016.33 1016.36 1016.43 1016.58 1016.79 1017.04 1017.30 1017.51 1017.65 1017.71 1017.69 1017.64 1017.60 1017.61 1017.70 1017.85 1018.06 1018.28 1018.49 1018.66 1018.78 1018.88 1018.96 1019.06
1011.59 1011.74 1012.06 1012.50 1013.00 1013.49 1013.91 1014.24 1014.48 1014.66 1014.82 1015.01 1015.23 1015.49 1015.74 1015.97 1016.13 1016.22 1016.26 1016.26 1016.29 1016.39 1016.56 1016.81 1017.10 1017.38 1017.61 1017.76 1017.81 1017.79 1017.74 1017.70 1017.71 1017.81 1017.97 1018.18 1018.40 1018.60 1018.75 1018.86 1018.93 1019.00 1019.10
1011.85 1012.02 1012.33 1012.74 1013.18 1013.60 1013.95 1014.22 1014.41 1014.57 1014.74 1014.94 1015.20 1015.48 1015.75 1015.99 1016.15 1016.23 1016.25 1016.26 1016.30 1016.41 1016.61 1016.88 1017.19 1017.49 1017.73 1017.88 1017.93 1017.90 1017.84 1017.80 1017.81 1017.90 1018.06 1018.26 1018.47 1018.65 1018.79 1018.87 1018.93 1018.98 1019.07
1012.16 1012.34 1012.63 1012.98 1013.35 1013.68 1013.94 1014.13 1014.27 1014.41 1014.58 1014.82 1015.11 1015.43 1015.75 1016.01 1016.19 1016.28 1016.31 1016.32 1016.37 1016.49 1016.70 1016.98 1017.30 1017.61 1017.85 1017.99 1018.03 1017.99 1017.93 1017.88 1017.88 1017.96 1018.11 1018.30 1018.49 1018.64 1018.75 1018.82 1018.85 1018.90 1018.99
1012.43 1012.61 1012.87 1013.17 1013.46 1013.69 1013.86 1013.98 1014.07 1014.20 1014.39 1014.66 1015.00 1015.37 1015.74 1016.04 1016.24 1016.36 1016.40 1016.43 1016.48 1016.60 1016.81 1017.09 1017.40 1017.70 1017.92 1018.05 1018.08 1018.04 1017.97 1017.91 1017.90 1017.98 1018.11 1018.28 1018.45 1018.58 1018.67 1018.72 1018.75 1018.79 1018.88
1012.57 1012.76 1013.00 1013.25 1013.47 1013.62 1013.72 1013.78 1013.85 1013.97 1014.17 1014.48 1014.87 1015.30 1015.72 1016.06 1016.31 1016.45 1016.51 1016.54 1016.60 1016.72 1016.92 1017.19 1017.48 1017.76 1017.97 1018.08 1018.10 1018.05 1017.97 1017.91 1017.90 1017.96 1018.08 1018.23 1018.39 1018.51 1018.59 1018.62 1018.64 1018.68 1018.77
1012.53 1012.74 1012.98 1013.19 1013.37 1013.47 1013.53 1013.56 1013.61 1013.74 1013.98 1014.33 1014.76 1015.24 1015.70 1016.08 1016.36 1016.53 1016.61 1016.66 1016.72 1016.84 1017.02 1017.27 1017.55 1017.81 1018.00 1018.10 1018.11 1018.06 1017.98 1017.92 1017.90 1017.96 1018.07 1018.21 1018.36 1018.47 1018.53 1018.56 1018.58 1018.61 1018.69
1012.28 1012.53 1012.77 1012.99 1013.14 1013.24 1013.28 1013.32 1013.39 1013.54 1013.81 1014.20 1014.67 1015.18 1015.67 1016.08 1016.39 1016.58 1016.69 1016.76 1016.84 1016.96 1017.15 1017.38 1017.65 1017.89 1018.06 1018.16 1018.17 1018.12 1018.05 1017.99 1017.98 1018.03 1018.13 1018.26 1018.39 1018.49 1018.55 1018.57 1018.57 1018.59 1018.64
1011.85 1012.12 1012.39 1012.63 1012.81 1012.92 1013.00 1013.08 1013.19 1013.39 1013.70 1014.12 1014.62 1015.15 1015.65 1016.08 1016.40 1016.63 1016.77 1016.86 1016.97 1017.11 1017.31 1017.55 1017.81 1018.04 1018.22 1018.31 1018.33 1018.29 1018.22 1018.17 1018.15 1018.20 1018.29 1018.41 1018.52 1018.61 1018.66 1018.66 1018.64 1018.63 1018.64
1011.26 1011.56 1011.86 1012.14 1012.37 1012.55 1012.70 1012.85 1013.04 1013.30 1013.66 1014.11 1014.61 1015.14 1015.64 1016.07 1016.42 1016.66 1016.84 1016.99 1017.14 1017.32 1017.54 1017.80 1018.06 1018.30 1018.47 1018.58 1018.60 1018.58 1018.52 1018.47 1018.45 1018.49 1018.56 1018.66 1018.75 1018.82 1018.85 1018.83 1018.78 1018.72 1018.68
1010.54 1010.86 1011.21 1011.54 1011.85 1012.13 1012.39 1012.66 1012.95 1013.29 1013.69 1014.16 1014.66 1015.18 1015.66 1016.08 1016.44 1016.71 1016.94 1017.14 1017.34 1017.57 1017.83 1018.12 1018.40 1018.65 1018.84 1018.95 1018.99 1018.97 1018.93 1018.88 1018.86 1018.88 1018.93 1019.01 1019.07 1019.11 1019.11 1019.06 1018.97 1018.86 1018.76
1009.75 1010.09 1010.47 1010.88 1011.29 1011.70 1012.10 1012.50 1012.91 1013.35 1013.81 1014.29 1014.78 1015.27 1015.72 1016.13 1016.48 1016.78 1017.05 1017.31 1017.57 1017.86 1018.17 1018.48 1018.79 1019.05 1019.25 1019.38 1019.43 1019.43 1019.39 1019.35 1019.33 1019.33 1019.36 1019.40 1019.44 1019.45 1019.42 1019.33 1019.21 1019.05 1018.88
1008.94 1009.28 1009.70 1010.19 1010.72 1011.28 1011.84 1012.40 1012.94 1013.48 1013.99 1014.49 1014.97 1015.41 1015.82 1016.20 1016.54 1016.86 1017.17 1017.48 1017.80 1018.14 1018.49 1018.83 1019.15 1019.43 1019.64 1019.78 1019.85 1019.87 1019.85 1019.82 1019.80 1019.79 1019.80 1019.82 1019.82 1019.80 1019.74 1019.63 1019.47 1019.28 1019.07
1008.16 1008.51 1008.97 1009.54 1010.19 1010.90 1011.63 1012.35 1013.04 1013.68 1014.25 1014.76 1015.20 1015.60 1015.96 1016.30 1016.62 1016.94 1017.27 1017.62 1017.99 1018.37 1018.74 1019.11 1019.44 1019.72 1019.94 1020.10 1020.20 1020.24 1020.25 1020.24 1020.23 1020.22 1020.22 1020.21 1020.19 1020.14 1020.06 1019.93 1019.76 1019.55 1019.31
1007.48 1007.83 1008.33 1008.98 1009.75 1010.60 1011.49 1012.37 1013.19 1013.92 1014.54 1015.05 1015.47 1015.82 1016.12 1016.41 1016.70 1017.02 1017.36 1017.73 1018.12 1018.52 1018.91 1019.28 1019.61 1019.90 1020.12 1020.30 1020.42 1020.50 1020.55 1020.57 1020.58 1020.58 1020.58 1020.56 1020.52 1020.45 1020.36 1020.22 1020.05 1019.84 1019.61
1006.98 1007.32 1007.85 1008.56 1009.42 1010.40 1011.43 1012.44 1013.37 1014.18 1014.84 1015.35 1015.74 1016.04 1016.29 1016.53 1016.79 1017.09 1017.43 1017.81 1018.20 1018.60 1018.99 1019.35 1019.67 1019.94 1020.18 1020.37 1020.53 1020.65 1020.74 1020.81 1020.86 1020.88 1020.87 1020.85 1020.80 1020.72 1020.62 1020.48 1020.32 1020.13 1019.91
1006.72 1007.05 1007.58 1008.33 1009.26 1010.32 1011.44 1012.54 1013.55 1014.41 1015.10 1015.61 1015.98 1016.24 1016.45 1016.65 1016.89 1017.17 1017.50 1017.87 1018.26 1018.65 1019.02 1019.35 1019.65 1019.92 1020.15 1020.36 1020.55 1020.72 1020.87 1020.98 1021.06 1021.11 1021.11 1021.08 1021.02 1020.93 1020.82 1020.68 1020.53 1020.37 1020.18
1006.75 1007.06 1007.58 1008.32 1009.27 1010.36 1011.52 1012.66 1013.71 1014.60 1015.30 1015.80 1016.15 1016.39 1016.58 1016.77 1016.99 1017.27 1017.60 1017.96 1018.34 1018.71 1019.06 1019.37 1019.64 1019.89 1020.12 1020.34 1020.56 1020.77 1020.95 1021.11 1021.23 1021.29 1021.30 1021.25 1021.17 1021.06 1020.93 1020.79 1020.64 1020.49 1020.33
1007.13 1007.39 1007.86 1008.56 1009.46 1010.53 1011.67 1012.80 1013.84 1014.73 1015.42 1015.92 1016.26 1016.50 1016.70 1016.89 1017.13 1017.42 1017.76 1018.13 1018.51 1018.86 1019.18 1019.45 1019.69 1019.92 1020.14 1020.36 1020.60 1020.83 1021.05 1021.23 1021.37 1021.43 1021.42 1021.36 1021.24 1021.09 1020.93 1020.76 1020.61 1020.46 1020.30
1007.83 1008.02 1008.42 1009.03 1009.85 1010.83 1011.90 1012.96 1013.95 1014.80 1015.47 1015.97 1016.33 1016.59 1016.81 1017.05 1017.32 1017.65 1018.02 1018.40 1018.78 1019.12 1019.41 1019.65 1019.86 1020.06 1020.26 1020.47 1020.71 1020.94 1021.17 1021.36 1021.48 1021.53 1021.50 1021.39 1021.22 1021.02 1020.81 1020.60 1020.42 1020.25 1020.09
1008.81 1008.93 1009.22 1009.72 1010.41 1011.26 1012.21 1013.17 1014.08 1014.87 1015.51 1016.00 1016.38 1016.68 1016.95 1017.25 1017.58 1017.96 1018.37 1018.78 1019.16 1019.49 1019.76 1019.98 1020.15 1020.31 1020.48 1020.67 1020.88 1021.11 1021.31 1021.48 1021.58 1021.59 1021.51 1021.34 1021.12 1020.86 1020.58 1020.32 1020.09 1019.88 1019.70
Thickness
5780 5779 5777 5775 5773 5772 5771 5769 5768 5768 5766 5765 5763 5762 5760 5758 5758 5757 5756 5755 5755 5754 5753 5753 5752 5751 5751 5750 5749 5748 5747 5747 5746 5745 5745 5745 5744 5744 5743 5742 5741 5740 5739
5784 5779 5775 5773 5771 5769 5768 5766 5764 5763 5761 5760 5759 5757 5756 5755 5754 5753 5752 5751 5750 5750 5749 5748 5748 5747 5746 5746 5745 5745 5744 5743 5743 5742 5742 5741 5740 5739 5738 5738 5737 5736 5735
5783 5778 5774 5771 5769 5767 5765 5763 5761 5759 5757 5756 5754 5753 5752 5751 5750 5749 5748 5748 5747 5746 5745 5744 5744 5743 5742 5742 5741 5741 5740 5739 5738 5738 5737 5736 5736 5735 5735 5734 5733 5732 5731
5782 5777 5773 5770 5767 5765 5763 5760 5758 5756 5754 5752 5751 5750 5749 5748 5747 5746 5745 5744 5744 5742 5741 5740 5739 5738 5738 5738 5737 5736 5736 5735 5734 5734 5733 5732 5732 5731 5730 5730 5728 5727 5726
5780 5777 5774 5770 5767 5764 5761 5759 5756 5754 5751 5750 5748 5747 5746 5745 5744 5743 5743 5742 5740 5739 5738 5736 5735 5734 5734 5734 5733 5733 5732 5732 5731 5730 5729 5729 5728 5727 5726 5725 5724 5723 5721
5779 5777 5774 5771 5767 5764 5761 5758 5755 5753 5750 5748 5746 5745 5743 5742 5741 5741 5740 5739 5738 5736 5735 5733 5731 5731 5731 5731 5730 5729 5729 5729 5728 5727 5726 5725 5724 5723 5722 5721 5719 5718 5717
5779 5776 5774 5771 5768 5765 5762 5759 5756 5753 5750 5748 5746 5744 5742 5741 5739 5738 5737 5736 5735 5733 5731 5730 5728 5728 5728 5728 5727 5726 5726 5725 5725 5724 5722 5721 5720 5719 5717 5716 5715 5714 5713
5780 5776 5773 5770 5768 5766 5763 5760 5756 5753 5750 5748 5745 5743 5741 5739 5737 5736 5734 5733 5731 5730 5728 5726 5725 5724 5725 5724 5724 5723 5722 5722 5721 5720 5719 5717 5716 5714 5713 5712 5711 5710 5709
5779 5775 5772 5770 5767 5765 5762 5759 5756 5753 5750 5747 5744 5742 5740 5738 5736 5734 5732 5730 5728 5727 5725 5723 5721 5721 5721 5721 5720 5720 5719 5718 5717 5716 5715 5714 5712 5711 5709 5708 5707 5706 5705
5777 5774 5772 5769 5767 5764 5762 5759 5756 5753 5749 5746 5743 5741 5738 5736 5734 5731 5729 5727 5725 5723 5721 5719 5718 5717 5717 5717 5716 5716 5716 5715 5714 5713 5712 5711 5709 5708 5706 5705 5703 5702 5701
5775 5773 5772 5770 5767 5765 5762 5759 5756 5753 5750 5746 5743 5740 5737 5734 5732 5729 5727 5725 5722 5720 5717 5715 5714 5713 5713 5713 5713 5712 5712 5712 5711 5710 5709 5708 5706 5705 5703 5701 5700 5698 5697
5775 5774 5773 5772 5770 5766 5763 5760 5756 5752 5749 5746 5743 5739 5736 5733 5730 5727 5724 5722 5719 5717 5714 5712 5710 5709 5709 5709 5708 5708 5709 5708 5707 5707 5706 5704 5703 5701 5699 5698 5696 5694 5693
5779 5777 5776 5773 5771 5768 5765 5761 5756 5752 5748 5744 5741 5738 5734 5730 5727 5724 5721 5719 5716 5714 5711 5709 5706 5705 5705 5704 5704 5704 5703 5703 5702 5702 5701 5700 5699 5697 5695 5693 5691 5690 5688
5781 5780 5778 5776 5773 5770 5767 5763 5757 5753 5748 5744 5740 5736 5732 5728 5724 5721 5718 5715 5712 5709 5707 5704 5702 5701 5700 5699 5699 5698 5697 5696 5696 5695 5694 5693 5692 5691 5690 5688 5686 5685 5683
5784 5783 5781 5778 5774 5771 5767 5763 5758 5754 5749 5744 5739 5735 5731 5726 5722 5719 5715 5711 5708 5705 5703 5700 5697 5696 5694 5693 5692 5691 5690 5689 5688 5687 5686 5685 5685 5683 5682 5681 5680 5679 5677
5789 5786 5784 5780 5776 5771 5767 5763 5759 5754 5748 5743 5738 5733 5728 5723 5719 5715 5711 5708 5704 5701 5698 5695 5693 5690 5688 5686 5684 5683 5681 5680 5679 5678 5677 5676 5676 5675 5674 5673 5672 5671 5669
5793 5789 5785 5782 5776 5771 5766 5761 5756 5751 5744 5738 5733 5728 5723 5718 5714 5710 5706 5702 5699 5696 5693 5690 5686 5684 5681 5679 5676 5674 5672 5671 5670 5669 5668 5667 5666 5665 5664 5663 5662 5661 5660
5794 5790 5786 5782 5775 5769 5763 5757 5751 5744 5738 5732 5726 5721 5717 5712 5707 5702 5698 5694 5691 5689 5686 5682 5678 5675 5672 5670 5667 5664 5662 5661 5660 5658 5657 5656 5655 5653 5651 5650 5650 5650 5649
5797 5792 5785 5780 5774 5766 5759 5752 5746 5739 5731 5725 5718 5713 5708 5703 5698 5693 5687 5684 5682 5679 5676 5674 5669 5666 5663 5661 5659 5655 5652 5650 5648 5647 5645 5644 5642 5640 5638 5637 5636 5636 5636
5797 5792 5785 5778 5772 5762 5754 5745 5737 5730 5722 5714 5706 5701 5697 5693 5689 5683 5677 5674 5673 5670 5666 5663 5660 5656 5653 5651 5650 5646 5641 5639 5636 5634 5632 5630 5629 5626 5624 5623 5622 5621 5620
5795 5790 5784 5776 5768 5758 5747 5737 5727 5718 5710 5703 5695 5690 5686 5683 5680 5676 5670 5667 5665 5662 5657 5653 5651 5647 5644 5641 5640 5636 5630 5627 5624 5621 5619 5617 5614 5612 5610 5608 5606 5604 5603
5791 5786 5779 5770 5761 5753 5742 5731 5721 5711 5701 5694 5687 5681 5678 5675 5672 5668 5666 5662 5657 5653 5648 5645 5643 5638 5633 5630 5629 5626 5621 5617 5613 5609 5606 5603 5600 5597 5595 5593 5591 5589 5587
5782 5778 5771 5763 5754 5745 5734 5723 5711 5703 5694 5685 5678 5672 5669 5666 5664 5661 5657 5653 5649 5644 5640 5636 5634 5631 5624 5618 5616 5615 5611 5608 5601 5598 5593 5590 5587 5584 5581 5578 5575 5573 5571
5773 5769 5762 5754 5745 5735 5726 5714 5703 5693 5684 5676 5670 5662 5658 5655 5654 5651 5647 5644 5640 5634 5630 5627 5624 5621 5616 5609 5603 5599 5595 5591 5587 5585 5582 5577 5573 5570 5566 5563 5560 5557 5554
5761 5756 5750 5743 5734 5726 5717 5707 5696 5685 5677 5669 5662 5655 5649 5645 5643 5641 5637 5633 5629 5624 5620 5616 5611 5607 5603 5597 5591 5586 5580 5574 5570 5569 5568 5565 5561 5557 5552 5548 5544 5541 5538
5746 5742 5737 5730 5722 5715 5709 5699 5690 5678 5669 5660 5653 5647 5641 5636 5633 5630 5627 5622 5618 5614 5609 5603 5599 5594 5588 5583 5577 5572 5567 5563 5557 5552 5550 5549 5548 5546 5540 5534 5528 5524 5520